Location: *
(37.5724°S, 58.0067°E)
Time: 19:45:08
(UTC+00:00)

Envisat - Pass Details

Date: 01 December 2022
Orbit: 763 x 765 km, 98.2° (Epoch: 29 January)

Event Time Altitude Azimuth Distance (km) Brightness Sun altitude
Rises 22:41:16 0° 41° (NE) 3,225 6.1 -19.1°
Reaches altitude 10° 22:43:47 10° 51° (NE) 2,307 5.5 -18.8°
Maximum altitude 22:48:11 30° 111° (ESE) 1,353 4.9 -18.2°
Drops below altitude 10° 22:52:37 10° 171° (S) 2,331 6.3 -17.6°
Sets 22:55:10 0° 181° (S) 3,265 7.0 -17.3°
